This is the latest recevied weather packets stored in our database for station/object WE0DX-1. If no packets are shown the sender has not sent any weather packets the latest 10 day(s).
| Time | Temp. | Humidity | Pressure | Rain* | Wind** | Luminosity | Snow |
|---|---|---|---|---|---|---|---|
| 1777404162 | 13.33° C | 72% | 1014.1 hPa | 0 mm | - | 711 W/m² | - |
| 1777403858 | 13.33° C | 73% | 1014.1 hPa | 0 mm | - | 232 W/m² | - |
| 1777403553 | 13.33° C | 72% | 1014 hPa | 0 mm | - | 271 W/m² | - |
| 1777403253 | 12.78° C | 74% | 1014.1 hPa | 0 mm | - | 285 W/m² | - |
| 1777402952 | 12.78° C | 74% | 1014.2 hPa | 0 mm | - | 272 W/m² | - |
| 1777402648 | 12.22° C | 74% | 1014.2 hPa | 0 mm | - | 658 W/m² | - |
| 1777402347 | 12.78° C | 74% | 1014.4 hPa | 0 mm | - | 210 W/m² | - |
| 1777402045 | 12.78° C | 74% | 1014 hPa | 0 mm | - | 259 W/m² | - |
| 1777401740 | 12.78° C | 74% | 1014.6 hPa | 0 mm | - | 232 W/m² | - |
| 1777401436 | 12.22° C | 76% | 1014.4 hPa | 0 mm | - | 452 W/m² | - |
| 1777401132 | 12.22° C | 76% | 1014.6 hPa | 0 mm | - | 240 W/m² | - |
| 1777400827 | 11.67° C | 76% | 1014.9 hPa | 0 mm | - | 238 W/m² | - |
| 1777400524 | 11.67° C | 76% | 1015.2 hPa | 0 mm | - | 194 W/m² | - |
| 1777400221 | 11.67° C | 77% | 1015.2 hPa | 0 mm | - | 159 W/m² | - |
| 1777399917 | 11.67° C | 77% | 1015 hPa | 0 mm | - | 160 W/m² | - |
| 1777399615 | 11.11° C | 78% | 1015.1 hPa | 0 mm | - | 179 W/m² | - |
| 1777399312 | 11.11° C | 79% | 1015.3 hPa | 0 mm | - | 114 W/m² | - |
| 1777399009 | 10.56° C | 79% | 1016 hPa | 0 mm | - | 133 W/m² | - |
| 1777398706 | 10.56° C | 79% | 1016.3 hPa | 0 mm | - | 82 W/m² | - |
| 1777398403 | 10.56° C | 78% | 1015.7 hPa | 0 mm | - | 57 W/m² | - |
| 1777398099 | 11.11° C | 78% | 1015.6 hPa | 0 mm | - | 66 W/m² | - |
| 1777397797 | 10.56° C | 79% | 1015.4 hPa | 0 mm | - | 125 W/m² | - |
| 1777397492 | 11.11° C | 78% | 1015.6 hPa | 0 mm | - | 242 W/m² | - |
| 1777397188 | 10.56° C | 79% | 1015.7 hPa | 0 mm | - | 175 W/m² | - |
| 1777396886 | 10.56° C | 79% | 1016.3 hPa | 0 mm | - | 119 W/m² | - |
* Rain latest hour (hover to see other rain measurements)
** Current wind speed in m/s (hover to see current wind gust speed)